TimeEST,TemperatureF,Dew PointF,Humidity,Sea Level PressureIn,VisibilityMPH,Wind Direction,Wind SpeedMPH,Gust SpeedMPH,PrecipitationIn,Events,Conditions,WindDirDegrees,DateUTC
12:53 AM,27.0,24.1,89,29.94,5.0,East,3.5,-,N/A,,Clear,100,2006-01-01 05:53:00
1:53 AM,28.0,25.0,88,29.93,4.0,SE,6.9,-,N/A,,Clear,140,2006-01-01 06:53:00
2:53 AM,30.9,27.0,85,29.95,7.0,SE,5.8,-,N/A,,Clear,140,2006-01-01 07:53:00
3:53 AM,32.0,28.0,85,29.96,8.0,SE,6.9,-,N/A,,Clear,140,2006-01-01 08:53:00
4:53 AM,30.9,28.0,89,29.94,6.0,ESE,4.6,-,N/A,,Clear,120,2006-01-01 09:53:00
5:53 AM,30.9,28.0,89,29.94,6.0,ESE,5.8,-,N/A,,Clear,120,2006-01-01 10:53:00
6:53 AM,30.0,27.0,88,29.94,6.0,ESE,5.8,-,N/A,,Clear,120,2006-01-01 11:53:00
7:53 AM,32.0,28.9,88,29.94,7.0,Calm,Calm,-,N/A,,Clear,0,2006-01-01 12:53:00
8:53 AM,45.0,28.9,53,29.92,6.0,SE,8.1,-,N/A,,Haze,130,2006-01-01 13:53:00
9:53 AM,46.0,30.0,54,29.93,7.0,SE,5.8,-,N/A,,Clear,130,2006-01-01 14:53:00
10:53 AM,55.0,32.0,42,29.92,9.0,ESE,6.9,-,N/A,,Clear,110,2006-01-01 15:53:00
11:53 AM,60.1,33.1,36,29.90,10.0,SE,8.1,-,N/A,,Clear,130,2006-01-01 16:53:00
12:53 PM,63.0,33.1,33,29.85,10.0,SE,11.5,-,N/A,,Mostly Cloudy,130,2006-01-01 17:53:00
1:53 PM,-9999,-9999,N/A,29.81,10.0,ESE,13.8,-,N/A,,Overcast,120,2006-01-01 18:53:00
2:53 PM,68.0,33.1,27,29.78,10.0,ESE,10.4,-,N/A,,Mostly Cloudy,120,2006-01-01 19:53:00
3:53 PM,66.9,33.1,28,29.79,10.0,ESE,9.2,-,N/A,,Overcast,120,2006-01-01 20:53:00
4:53 PM,66.0,35.1,32,29.79,10.0,SE,10.4,-,N/A,,Overcast,130,2006-01-01 21:53:00
5:09 PM,-9999,-9999,N/A,29.79,10.0,SE,8.1,-,N/A,,Overcast,140,2006-01-01 22:09:00
5:53 PM,-9999,-9999,N/A,29.76,10.0,ESE,10.4,-,N/A,,Overcast,120,2006-01-01 22:53:00
6:53 PM,53.1,37.9,57,29.76,10.0,SE,9.2,-,N/A,,Overcast,130,2006-01-01 23:53:00
7:53 PM,55.0,41.0,59,29.75,10.0,SE,11.5,-,N/A,,Overcast,130,2006-01-02 00:53:00
8:53 PM,54.0,39.9,59,29.75,10.0,ESE,9.2,-,N/A,,Overcast,110,2006-01-02 01:53:00
9:53 PM,54.0,37.9,55,29.72,10.0,ESE,12.7,-,N/A,,Overcast,110,2006-01-02 02:53:00
10:53 PM,55.0,41.0,59,29.72,10.0,SE,10.4,-,N/A,,Overcast,130,2006-01-02 03:53:00
11:53 PM,57.0,45.0,64,29.70,10.0,SE,12.7,-,N/A,,Overcast,130,2006-01-02 04:53:00